User: anonymous   Login
Location: Caltech
(34.1382°N, 118.1253°W)
Time: 20:47:55
(UTC-07:00)
Language:

Cosmos-2242 - Orbit

View from above orbital plane
View from above orbital plane
View from above satellite
View from above satellite

Ground track
Ground track

The orbit data is extracted from the following two-line orbital elements,

1 22626U 93024A   17230.82166226  .00000173  00000-0  16312-4 0  9990
2 22626  82.5245 342.7680 0017502 273.0351  86.8864 14.87684917315466
Epoch (UTC): 18 August 2017 19:43:11
Eccentricity: 0.0017502
inclination: 82.5245°
perigee height: 593 km
apogee height: 617 km
right ascension of ascending node: 342.7680°
argument of perigee: 273.0351°
revolutions per day: 14.87684917
mean anomaly at epoch: 86.8864°
orbit number at epoch: 31546

The dashed part of the orbit path shows where the satellite is in the earth's shadow,  

DLR